Weather History for KJLN - July, 2012

Change the Weather History Date:

Monday, July 30, 2012

  Actual Average Record
Temperature  
Mean Temperature 95 °F 81 °F  
Max Temperature 106 °F 92 °F 107 °F (1986)
Min Temperature 84 °F 70 °F 56 °F (1965)
Degree Days  
Heating Degree Days 0 0  
Month to date heating degree days 0 0  
Since 1 June heating degree days 9 5  
Since 1 July heating degree days 0 0  
Cooling Degree Days 30 16  
Month to date cooling degree days 655 459  
Year to date cooling degree days 1399 957  
Since 1 June cooling degree days 1053 777  
Growing Degree Days 45 (Base 50)    
Moisture  
Dew Point 56 °F    
Average Humidity 33    
Maximum Humidity 48    
Minimum Humidity 17    
Precipitation  
Precipitation 0.00 in 0.10 in 2.06 in (2008)
Month to date precipitation T 3.71  
Year to date precipitation 20.69 27.52  
Snow  
Snow 0.00 in - - ()
Month to date snowfall 0.0  
Since 1 June snowfall 0.0  
Snow Depth 0.00 in    
Sea Level Pressure  
Sea Level Pressure 29.87 in    
Wind  
Wind Speed 9 mph (WSW)    
Max Wind Speed 20 mph    
Max Gust Speed 24 mph    
Visibility 10 miles    
Events      
T = Trace of Precipitation, MM = Missing Value Source: NWS Daily Summary

Daily Weather History Graph

Daily Weather History Graph

Search for Another Location

Airport or City:

Trip Planner

Search our weather history database for the weather conditions in past years. The results will help you decide how hot, cold, wet, or windy it might be!

Date:

Astronomy

Jul. 30, 2012 Rise Set
Actual Time 6:21 AM CDT 8:26 PM CDT
Civil Twilight 5:52 AM CDT 8:55 PM CDT
Nautical Twilight 5:17 AM CDT 9:30 PM CDT
Astronomical Twilight 4:39 AM CDT 10:08 PM CDT
Moon 6:27 PM CDT 3:38 AM CDT
Length of Visible Light 15h 02m
Length of Day
14h 04m
Waxing Gibbous, 92% of the Moon is Illuminated
Jul 30
Waxing Gibbous
Aug 1
Full
Aug 9
Last Quarter
Aug 17
New
Aug 24
First Quarter

Hourly Weather History & Observations

Time (CDT) Temp. Heat Index Dew Point Humidity Pressure Visibility Wind Dir Wind Speed Gust Speed Precip Events Conditions
12:53 AM 89.1 °F 86.7 °F 53.1 °F 29% 29.84 in 10.0 mi SSW 11.5 mph - N/A   Clear
1:53 AM 89.1 °F 86.9 °F 54.0 °F 30% 29.84 in 10.0 mi SSW 11.5 mph - N/A   Clear
2:53 AM 89.1 °F 87.3 °F 55.9 °F 32% 29.83 in 10.0 mi SSW 16.1 mph - N/A   Clear
3:53 AM 88.0 °F 86.1 °F 55.0 °F 32% 29.84 in 10.0 mi SW 12.7 mph - N/A   Clear
4:53 AM 86.0 °F 84.5 °F 55.0 °F 35% 29.86 in 10.0 mi SW 11.5 mph - N/A   Clear
5:53 AM 84.9 °F 83.6 °F 55.0 °F 36% 29.89 in 10.0 mi SW 10.4 mph - N/A   Partly Cloudy
6:53 AM 84.9 °F 83.7 °F 55.9 °F 37% 29.89 in 10.0 mi SSW 10.4 mph - N/A   Scattered Clouds
7:53 AM 87.1 °F 85.7 °F 55.9 °F 35% 29.90 in 10.0 mi SW 11.5 mph - N/A   Partly Cloudy
8:53 AM 88.0 °F 86.9 °F 57.9 °F 36% 29.96 in 10.0 mi NNW 17.3 mph 24.2 mph N/A   Scattered Clouds
9:53 AM 91.0 °F 89.7 °F 57.0 °F 32% 29.93 in 10.0 mi SW 9.2 mph - N/A   Clear
10:53 AM 96.1 °F 94.1 °F 55.0 °F 25% 29.91 in 10.0 mi WSW 6.9 mph - N/A   Clear
11:53 AM 98.1 °F 96.1 °F 54.0 °F 23% 29.90 in 10.0 mi Variable 5.8 mph - N/A   Clear
12:53 PM 100.0 °F 98.3 °F 55.0 °F 22% 29.88 in 10.0 mi SW 10.4 mph - N/A   Clear
1:53 PM 100.9 °F 99.6 °F 55.0 °F 22% 29.88 in 10.0 mi SW 12.7 mph - N/A   Clear
2:53 PM 102.9 °F 101.4 °F 55.0 °F 20% 29.85 in 10.0 mi West 10.4 mph - N/A   Clear
3:53 PM 105.1 °F 103.3 °F 54.0 °F 18% 29.83 in 10.0 mi West 9.2 mph 16.1 mph N/A   Clear
4:53 PM 106.0 °F - 52.0 °F 17% 29.82 in 10.0 mi WNW 5.8 mph 17.3 mph N/A   Clear
5:53 PM 104.0 °F 101.8 °F 53.1 °F 18% 29.82 in 10.0 mi WNW 6.9 mph - N/A   Clear
6:53 PM 102.0 °F 100.6 °F 55.0 °F 21% 29.82 in 10.0 mi NNE 6.9 mph - N/A   Clear
7:53 PM 97.0 °F 96.1 °F 57.9 °F 27% 29.83 in 10.0 mi NE 8.1 mph - N/A   Clear
8:53 PM 93.0 °F 93.8 °F 62.1 °F 36% 29.83 in 10.0 mi ENE 9.2 mph - N/A   Clear
9:53 PM 90.0 °F 90.3 °F 62.1 °F 39% 29.86 in 10.0 mi ENE 9.2 mph - N/A   Clear
10:53 PM 88.0 °F 88.4 °F 62.1 °F 42% 29.88 in 10.0 mi East 9.2 mph - N/A   Clear
11:53 PM 84.9 °F 85.9 °F 63.0 °F 48% 29.88 in 10.0 mi ENE 4.6 mph - N/A   Clear